This demonstration page uses our WeatherBlox Daily Observations layout. Learn more.

Left ArrowRight Arrow

Hourly Observations for June 23, 2016

Temp ( °F °C ) Dew Point ( °F °C ) Humidity (%) Winds ( mph kmh ) Pressure ( in mb ) Visibility ( mi km ) Precip ( " mm )
12:52 am 00:52 Clear 81 27.2 69 20.6 67 67 SSW 13 20 29.90 1012 10 16 0.00 0.00
1:52 am 01:52 Clear 81 27.2 70 21.1 69 69 SW 13 20 29.90 1012 10 16 0.00 0.00
2:52 am 02:52 Clear 80 26.7 70 21.1 71 71 SSW 14 22 29.91 1013 10 16 0.00 0.00
3:52 am 03:52 Mostly Cloudy 80 26.7 71 21.7 74 74 SW 14 22 29.91 1013 10 16 0.00 0.00
4:52 am 04:52 Partly Cloudy 80 26.7 71 21.7 74 74 SW 17 28 29.93 1014 10 16 0.00 0.00
5:48 am 05:48 Mostly Cloudy 81 27 72 22 74 74 SW 13 20 29.94 1014 10 16 0.00 0.00
5:52 am 05:52 Mostly Cloudy 80 26.7 71 21.7 74 74 SW 12 19 29.95 1014 10 16 0.00 0.00
6:52 am 06:52 Mostly Cloudy 80 26.7 71 21.7 74 74 WSW 12 19 29.96 1014 10 16 0.00 0.00
7:52 am 07:52 Mostly Sunny 81 27.2 71 21.7 72 72 SW 15 24 29.96 1015 10 16 0.00 0.00
8:52 am 08:52 Sunny 84 28.9 72 22.2 67 67 SW 16 26 29.97 1015 10 16 0.00 0.00
9:52 am 09:52 Mostly Sunny 86 30 71 21.7 61 61 WSW 15 24 29.97 1015 10 16 0.00 0.00
10:52 am 10:52 Mostly Cloudy 89 31.7 72 22.2 57 57 WSW 15 24 29.97 1015 10 16 0.00 0.00
11:52 am 11:52 Sunny 91 32.8 71 21.7 52 52 W 10 17 29.96 1015 10 16 0.00 0.00
12:52 pm 12:52 Partly Cloudy 92 33.3 71 21.7 51 51 WNW 8 13 29.95 1014 10 16 0.00 0.00
1:52 pm 13:52 Partly Cloudy 93 33.9 72 22.2 50 50 W 6 9 29.95 1014 10 16 0.00 0.00
2:52 pm 14:52 Mostly Sunny 93 33.9 72 22.2 50 50 VRB 6 9 29.94 1014 10 16 0.00 0.00
3:52 pm 15:52 Mostly Sunny 95 35 72 22.2 47 47 VRB 6 9 29.93 1014 10 16 0.00 0.00
4:52 pm 16:52 Sunny 95 35 71 21.7 46 46 NW 5 7 29.91 1013 10 16 0.00 0.00
5:49 pm 17:49 Partly Cloudy with Nearby Thunderstorms 93 34 73 23 53 53 VRB 6 9 29.85 1011 10 16 0.00 0.00
5:52 pm 17:52 Partly Cloudy with Nearby Thunderstorms 93 33.9 72 22.2 50 50 N 6 9 29.90 1012 10 16 0.00 0.00
6:10 pm 18:10 Sunny 91 33 73 23 56 56 N 8 13 29.85 1011 10 16 0.00 0.00
6:21 pm 18:21 Sunny with Nearby Thunderstorms 92 33.3 73 22.8 54 54 N 7 11 29.85 1011 10 16 0.00 0.00
6:52 pm 18:52 Cloudy with Thunderstorms 90 32.2 74 23.3 59 59 E 13 20 29.89 1012 10 16 0.00 0.00
7:11 pm 19:11 Cloudy with Thunderstorms 82 28 70 21 66 66 SE 14 22 29.88 1012 10 16 0.00 0.00
7:44 pm 19:44 Cloudy with Strong Thunderstorms 75 24 70 21 83 83 S 29 46 29.91 1013 3 4 0.00 0.00
7:52 pm 19:52 Mostly Cloudy with Strong Thunderstorms 75 23.9 69 20.6 82 82 S 22 35 29.96 1014 2 3 0.29 7.37
8:05 pm 20:05 Cloudy with Strong Thunderstorms 71 21.7 67 19.4 87 87 SW 20 31 30.00 1016 2 3 0.31 7.87
8:20 pm 20:20 Cloudy with Strong Thunderstorms 72 22 68 20 88 88 WSW 16 26 30.03 1017 3 5 0.00 0.00
8:52 pm 20:52 Cloudy with Strong Thunderstorms 70 21.1 65 18.3 84 84 SW 15 24 30.01 1016 3 5 1.01 25.65
9:27 pm 21:27 Mostly Cloudy with Thunderstorms 71 21.7 67 19.4 87 87 W 14 22 30.03 1017 10 16 0.28 7.11
9:52 pm 21:52 Mostly Cloudy with Strong Thunderstorms 71 21.7 68 20 90 90 NNW 22 35 30.03 1017 5 8 0.37 9.40
10:14 pm 22:14 Mostly Cloudy with Nearby Thunderstorms 72 22 68 20 88 88 N 14 22 30.06 1018 10 16 0.00 0.00
10:28 pm 22:28 Mostly Cloudy with Light Rain 72 22 68 20 88 88 N 9 15 30.03 1017 10 16 0.00 0.00
10:52 pm 22:52 Cloudy with Light Rain 71 21.7 68 20 90 90 NNW 6 9 30.04 1017 10 16 0.15 3.81
11:52 pm 23:52 Mostly Cloudy with Light Rain 72 22.2 68 20 87 87 NNE 3 6 29.99 1016 10 16 0.00 0.03

Powered by AerisWeather